Year,Month,Day,Hour,Minute,Value (Times are PST for temperature in C)
2017,06,22,00,00,11.80
2017,06,22,00,01,11.80
2017,06,22,00,02,11.80
2017,06,22,00,03,11.80
2017,06,22,00,04,11.80
2017,06,22,00,05,11.80
2017,06,22,00,06,11.80
2017,06,22,00,07,11.80
2017,06,22,00,08,11.80
2017,06,22,00,09,11.80
2017,06,22,00,10,11.80
2017,06,22,00,11,11.80
2017,06,22,00,12,11.80
2017,06,22,00,13,11.80
2017,06,22,00,14,11.80
2017,06,22,00,15,11.80
2017,06,22,00,16,11.70
2017,06,22,00,17,11.70
2017,06,22,00,18,11.70
2017,06,22,00,19,11.70
2017,06,22,00,20,11.70
2017,06,22,00,21,11.70
2017,06,22,00,22,11.70
2017,06,22,00,23,11.70
2017,06,22,00,24,11.70
2017,06,22,00,25,11.60
2017,06,22,00,26,11.60
2017,06,22,00,27,11.60
2017,06,22,00,28,11.60
2017,06,22,00,29,11.60
2017,06,22,00,30,11.60
2017,06,22,00,31,11.60
2017,06,22,00,32,11.60
2017,06,22,00,33,11.60
2017,06,22,00,34,11.60
2017,06,22,00,35,11.60
2017,06,22,00,36,11.60
2017,06,22,00,37,11.60
2017,06,22,00,38,11.60
2017,06,22,00,39,11.60
2017,06,22,00,40,11.60
2017,06,22,00,41,11.60
2017,06,22,00,42,11.60
2017,06,22,00,43,11.60
2017,06,22,00,44,11.60
2017,06,22,00,45,11.60
2017,06,22,00,46,11.60
2017,06,22,00,47,11.60
2017,06,22,00,48,11.60
2017,06,22,00,49,11.60
2017,06,22,00,50,11.60
2017,06,22,00,51,11.60
2017,06,22,00,52,11.60
2017,06,22,00,53,11.60
2017,06,22,00,54,11.60
2017,06,22,00,55,11.60
2017,06,22,00,56,11.60
2017,06,22,00,57,11.60
2017,06,22,00,58,11.60
2017,06,22,00,59,11.50
2017,06,22,01,00,11.40
2017,06,22,01,01,11.40
2017,06,22,01,02,11.40
2017,06,22,01,03,11.50
2017,06,22,01,04,11.60
2017,06,22,01,05,11.60
2017,06,22,01,06,11.60
2017,06,22,01,07,11.60
2017,06,22,01,08,11.60
2017,06,22,01,09,11.60
2017,06,22,01,10,11.60
2017,06,22,01,11,11.60
2017,06,22,01,12,11.60
2017,06,22,01,13,11.60
2017,06,22,01,14,11.60
2017,06,22,01,15,11.60
2017,06,22,01,16,11.60
2017,06,22,01,17,11.60
2017,06,22,01,18,11.60
2017,06,22,01,19,11.60
2017,06,22,01,20,11.60
2017,06,22,01,21,11.60
2017,06,22,01,22,11.60
2017,06,22,01,23,11.60
2017,06,22,01,24,11.60
2017,06,22,01,25,11.60
2017,06,22,01,26,11.60
2017,06,22,01,27,11.60
2017,06,22,01,28,11.60
2017,06,22,01,29,11.60
2017,06,22,01,30,11.60
2017,06,22,01,31,11.60
2017,06,22,01,32,11.60
2017,06,22,01,33,11.60
2017,06,22,01,34,11.60
2017,06,22,01,35,11.60
2017,06,22,01,36,11.60
2017,06,22,01,37,11.60
2017,06,22,01,38,11.60
2017,06,22,01,39,11.60
2017,06,22,01,40,11.60
2017,06,22,01,41,11.60
2017,06,22,01,42,11.50
2017,06,22,01,43,11.40
2017,06,22,01,44,11.40
2017,06,22,01,45,11.40
2017,06,22,01,46,11.40
2017,06,22,01,47,11.40
2017,06,22,01,48,11.40
2017,06,22,01,49,11.40
2017,06,22,01,50,11.40
2017,06,22,01,51,11.40
2017,06,22,01,52,11.30
2017,06,22,01,53,11.30
2017,06,22,01,54,11.30
2017,06,22,01,55,11.30
2017,06,22,01,56,11.20
2017,06,22,01,57,11.20
2017,06,22,01,58,11.20
2017,06,22,01,59,11.20
2017,06,22,02,00,11.20
2017,06,22,02,01,11.20
2017,06,22,02,02,11.20
2017,06,22,02,03,11.20
2017,06,22,02,04,11.20
2017,06,22,02,05,11.20
2017,06,22,02,06,11.20
2017,06,22,02,07,11.10
2017,06,22,02,08,11.10
2017,06,22,02,09,11.10
2017,06,22,02,10,11.10
2017,06,22,02,11,11.10
2017,06,22,02,12,11.10
2017,06,22,02,13,11.10
2017,06,22,02,14,11.10
2017,06,22,02,15,11.10
2017,06,22,02,16,11.10
2017,06,22,02,17,11.00
2017,06,22,02,18,10.90
2017,06,22,02,19,10.90
2017,06,22,02,20,10.90
2017,06,22,02,21,10.90
2017,06,22,02,22,10.90
2017,06,22,02,23,10.90
2017,06,22,02,24,10.90
2017,06,22,02,25,10.90
2017,06,22,02,26,10.90
2017,06,22,02,27,10.90
2017,06,22,02,28,10.90
2017,06,22,02,29,10.90
2017,06,22,02,30,10.90
2017,06,22,02,31,10.90
2017,06,22,02,32,10.80
2017,06,22,02,33,10.80
2017,06,22,02,34,10.80
2017,06,22,02,35,10.80
2017,06,22,02,36,10.70
2017,06,22,02,37,10.70
2017,06,22,02,38,10.70
2017,06,22,02,39,10.60
2017,06,22,02,40,10.60
2017,06,22,02,41,10.60
2017,06,22,02,42,10.60
2017,06,22,02,43,10.60
2017,06,22,02,44,10.60
2017,06,22,02,45,10.60
2017,06,22,02,46,10.50
2017,06,22,02,47,10.40
2017,06,22,02,48,10.40
2017,06,22,02,49,10.40
2017,06,22,02,50,10.40
2017,06,22,02,51,10.40
2017,06,22,02,52,10.40
2017,06,22,02,53,10.30
2017,06,22,02,54,10.30
2017,06,22,02,55,10.30
2017,06,22,02,56,10.30
2017,06,22,02,57,10.30
2017,06,22,02,58,10.30
2017,06,22,02,59,10.30
2017,06,22,03,00,10.30
2017,06,22,03,01,10.30
2017,06,22,03,02,10.30
2017,06,22,03,03,10.30
2017,06,22,03,04,10.20
2017,06,22,03,05,10.20
2017,06,22,03,06,10.20
2017,06,22,03,07,10.20
2017,06,22,03,08,10.20
2017,06,22,03,09,10.30
2017,06,22,03,10,10.30
2017,06,22,03,11,10.30
2017,06,22,03,12,10.30
2017,06,22,03,13,10.40
2017,06,22,03,14,10.40
2017,06,22,03,15,10.40
2017,06,22,03,16,10.40
2017,06,22,03,17,10.40
2017,06,22,03,18,10.30
2017,06,22,03,19,10.30
2017,06,22,03,20,10.30
2017,06,22,03,21,10.30
2017,06,22,03,22,10.30
2017,06,22,03,23,10.30
2017,06,22,03,24,10.30
2017,06,22,03,25,10.30
2017,06,22,03,26,10.30
2017,06,22,03,27,10.30
2017,06,22,03,28,10.30
2017,06,22,03,29,10.30
2017,06,22,03,30,10.30
2017,06,22,03,31,10.30
2017,06,22,03,32,10.30
2017,06,22,03,33,10.30
2017,06,22,03,34,10.20
2017,06,22,03,35,10.20
2017,06,22,03,36,10.20
2017,06,22,03,37,10.20
2017,06,22,03,38,10.20
2017,06,22,03,39,10.20
2017,06,22,03,40,10.20
2017,06,22,03,41,10.20
2017,06,22,03,42,10.20
2017,06,22,03,43,10.20
2017,06,22,03,44,10.10
2017,06,22,03,45,10.10
2017,06,22,03,46,10.10
2017,06,22,03,47,10.10
2017,06,22,03,48,10.10
2017,06,22,03,49,10.10
2017,06,22,03,50,10.10
2017,06,22,03,51,10.00
2017,06,22,03,52,10.10
2017,06,22,03,53,10.10
2017,06,22,03,54,10.10
2017,06,22,03,55,10.10
2017,06,22,03,56,10.10
2017,06,22,03,57,10.10
2017,06,22,03,58,10.10
2017,06,22,03,59,10.10
2017,06,22,04,00,10.10
2017,06,22,04,01,10.10
2017,06,22,04,02,10.10
2017,06,22,04,03,10.10
2017,06,22,04,04,10.10
2017,06,22,04,05,10.10
2017,06,22,04,06,10.10
2017,06,22,04,07,10.10
2017,06,22,04,08,10.10
2017,06,22,04,09,10.10
2017,06,22,04,10,9.90
2017,06,22,04,11,9.90
2017,06,22,04,12,9.90
2017,06,22,04,13,9.90
2017,06,22,04,14,9.90
2017,06,22,04,15,9.90
2017,06,22,04,16,9.90
2017,06,22,04,17,9.90
2017,06,22,04,18,9.90
2017,06,22,04,19,9.90
2017,06,22,04,20,9.90
2017,06,22,04,21,9.90
2017,06,22,04,22,9.90
2017,06,22,04,23,9.90
2017,06,22,04,24,9.90
2017,06,22,04,25,9.90
2017,06,22,04,26,9.90
2017,06,22,04,27,9.90
2017,06,22,04,28,9.90
2017,06,22,04,29,9.90
2017,06,22,04,30,9.90
2017,06,22,04,31,10.00
2017,06,22,04,32,10.10
2017,06,22,04,33,10.10
2017,06,22,04,34,10.10
2017,06,22,04,35,10.10
2017,06,22,04,36,10.10
2017,06,22,04,37,10.10
2017,06,22,04,38,10.10
2017,06,22,04,39,10.10
2017,06,22,04,40,10.10
2017,06,22,04,41,10.00
2017,06,22,04,42,9.90
2017,06,22,04,43,9.90
2017,06,22,04,44,9.90
2017,06,22,04,45,9.90
2017,06,22,04,46,9.90
2017,06,22,04,47,9.90
2017,06,22,04,48,9.80
2017,06,22,04,49,9.80
2017,06,22,04,50,9.80
2017,06,22,04,51,9.80
2017,06,22,04,52,9.80
2017,06,22,04,53,9.80
2017,06,22,04,54,9.80
2017,06,22,04,55,9.80
2017,06,22,04,56,9.70
2017,06,22,04,57,9.70
2017,06,22,04,58,9.70
2017,06,22,04,59,9.70
2017,06,22,05,00,9.70
2017,06,22,05,01,9.70
2017,06,22,05,02,9.80
2017,06,22,05,03,9.80
2017,06,22,05,04,9.80
2017,06,22,05,05,9.80
2017,06,22,05,06,9.80
2017,06,22,05,07,9.90
2017,06,22,05,08,9.90
2017,06,22,05,09,9.90
2017,06,22,05,10,9.90
2017,06,22,05,11,9.80
2017,06,22,05,12,9.80
2017,06,22,05,13,9.80
2017,06,22,05,14,9.80
2017,06,22,05,15,9.80
2017,06,22,05,16,9.80
2017,06,22,05,17,9.80
2017,06,22,05,18,9.70
2017,06,22,05,19,9.70
2017,06,22,05,20,9.70
2017,06,22,05,21,9.70
2017,06,22,05,22,9.70
2017,06,22,05,23,9.70
2017,06,22,05,24,9.70
2017,06,22,05,25,9.70
2017,06,22,05,26,9.70
2017,06,22,05,27,9.70
2017,06,22,05,28,9.70
2017,06,22,05,29,9.70
2017,06,22,05,30,9.70
2017,06,22,05,31,9.70
2017,06,22,05,32,9.70
2017,06,22,05,33,9.70
2017,06,22,05,34,9.70
2017,06,22,05,35,9.70
2017,06,22,05,36,9.70
2017,06,22,05,37,9.70
2017,06,22,05,38,9.70
2017,06,22,05,39,9.70
2017,06,22,05,40,9.70
2017,06,22,05,41,9.70
2017,06,22,05,42,9.70
2017,06,22,05,43,9.70
2017,06,22,05,44,9.70
2017,06,22,05,45,9.70
2017,06,22,05,46,9.70
2017,06,22,05,47,9.70
2017,06,22,05,48,9.70
2017,06,22,05,49,9.80
2017,06,22,05,50,9.80
2017,06,22,05,51,9.80
2017,06,22,05,52,9.90
2017,06,22,05,53,9.90
2017,06,22,05,54,9.90
2017,06,22,05,55,9.90
2017,06,22,05,56,9.90
2017,06,22,05,57,10.00
2017,06,22,05,58,10.10
2017,06,22,05,59,10.10
2017,06,22,06,00,10.10
2017,06,22,06,01,10.10
2017,06,22,06,02,10.10
2017,06,22,06,03,10.10
2017,06,22,06,04,10.10
2017,06,22,06,05,10.10
2017,06,22,06,06,10.10
2017,06,22,06,07,10.10
2017,06,22,06,08,10.10
2017,06,22,06,09,10.20
2017,06,22,06,10,10.20
2017,06,22,06,11,10.30
2017,06,22,06,12,10.30
2017,06,22,06,13,10.40
2017,06,22,06,14,10.40
2017,06,22,06,15,10.50
2017,06,22,06,16,10.60
2017,06,22,06,17,10.60
2017,06,22,06,18,10.70
2017,06,22,06,19,10.70
2017,06,22,06,20,10.80
2017,06,22,06,21,10.90
2017,06,22,06,22,10.90
2017,06,22,06,23,11.00
2017,06,22,06,24,11.10
2017,06,22,06,25,11.10
2017,06,22,06,26,11.20
2017,06,22,06,27,11.30
2017,06,22,06,28,11.30
2017,06,22,06,29,11.40
2017,06,22,06,30,11.40
2017,06,22,06,31,11.50
2017,06,22,06,32,11.60
2017,06,22,06,33,11.60
2017,06,22,06,34,11.60
2017,06,22,06,35,11.70
2017,06,22,06,36,11.70
2017,06,22,06,37,11.80
2017,06,22,06,38,11.80
2017,06,22,06,39,11.90
2017,06,22,06,40,12.00
2017,06,22,06,41,12.00
2017,06,22,06,42,12.10
2017,06,22,06,43,12.10
2017,06,22,06,44,12.20
2017,06,22,06,45,12.20
2017,06,22,06,46,12.30
2017,06,22,06,47,12.30
2017,06,22,06,48,12.30
2017,06,22,06,49,12.30
2017,06,22,06,50,12.30
2017,06,22,06,51,12.40
2017,06,22,06,52,12.40
2017,06,22,06,53,12.50
2017,06,22,06,54,12.50
2017,06,22,06,55,12.60
2017,06,22,06,56,12.60
2017,06,22,06,57,12.70
2017,06,22,06,58,12.70
2017,06,22,06,59,12.80
2017,06,22,07,00,12.80
2017,06,22,07,01,12.80
2017,06,22,07,02,12.90
2017,06,22,07,03,12.90
2017,06,22,07,04,13.00
2017,06,22,07,05,13.10
2017,06,22,07,06,13.20
2017,06,22,07,07,13.30
2017,06,22,07,08,13.30
2017,06,22,07,09,13.30
2017,06,22,07,10,13.40
2017,06,22,07,11,13.50
2017,06,22,07,12,13.50
2017,06,22,07,13,13.50
2017,06,22,07,14,13.40
2017,06,22,07,15,13.40
2017,06,22,07,16,13.40
2017,06,22,07,17,13.40
2017,06,22,07,18,13.40
2017,06,22,07,19,13.50
2017,06,22,07,20,13.50
2017,06,22,07,21,13.60
2017,06,22,07,22,13.60
2017,06,22,07,23,13.60
2017,06,22,07,24,13.60
2017,06,22,07,25,13.70
2017,06,22,07,26,13.70
2017,06,22,07,27,13.70
2017,06,22,07,28,13.70
2017,06,22,07,29,13.70
2017,06,22,07,30,13.60
2017,06,22,07,31,13.50
2017,06,22,07,32,13.40
2017,06,22,07,33,13.30
2017,06,22,07,34,13.20
2017,06,22,07,35,13.10
2017,06,22,07,36,13.00
2017,06,22,07,37,12.90
2017,06,22,07,38,12.80
2017,06,22,07,39,12.70
2017,06,22,07,40,12.70
2017,06,22,07,41,12.70
2017,06,22,07,42,12.70
2017,06,22,07,43,12.70
2017,06,22,07,44,12.70
2017,06,22,07,45,12.70
2017,06,22,07,46,12.80
2017,06,22,07,47,12.80
2017,06,22,07,48,12.80
2017,06,22,07,49,12.80
2017,06,22,07,50,12.70
2017,06,22,07,51,12.60
2017,06,22,07,52,12.50
2017,06,22,07,53,12.50
2017,06,22,07,54,12.50
2017,06,22,07,55,12.50
2017,06,22,07,56,12.60
2017,06,22,07,57,12.60
2017,06,22,07,58,12.60
2017,06,22,07,59,12.70
2017,06,22,08,00,12.80
2017,06,22,08,01,12.80
2017,06,22,08,02,12.90
2017,06,22,08,03,12.90
2017,06,22,08,04,13.00
2017,06,22,08,05,13.00
2017,06,22,08,06,13.10
2017,06,22,08,07,13.20
2017,06,22,08,08,13.30
2017,06,22,08,09,13.40
2017,06,22,08,10,13.50
2017,06,22,08,11,13.60
2017,06,22,08,12,13.60
2017,06,22,08,13,13.70
2017,06,22,08,14,13.70
2017,06,22,08,15,13.80
2017,06,22,08,16,13.80
2017,06,22,08,17,13.90
2017,06,22,08,18,14.00
2017,06,22,08,19,14.10
2017,06,22,08,20,14.20
2017,06,22,08,21,14.30
2017,06,22,08,22,14.50
2017,06,22,08,23,14.50
2017,06,22,08,24,14.50
2017,06,22,08,25,14.40
2017,06,22,08,26,14.30
2017,06,22,08,27,14.20
2017,06,22,08,28,14.10
2017,06,22,08,29,13.90
2017,06,22,08,30,13.90
2017,06,22,08,31,13.80
2017,06,22,08,32,13.70
2017,06,22,08,33,13.80
2017,06,22,08,34,13.90
2017,06,22,08,35,13.90
2017,06,22,08,36,13.80
2017,06,22,08,37,13.90
2017,06,22,08,38,13.90
2017,06,22,08,39,13.90
2017,06,22,08,40,14.00
2017,06,22,08,41,14.00
2017,06,22,08,42,14.00
2017,06,22,08,43,13.90
2017,06,22,08,44,13.80
2017,06,22,08,45,13.80
2017,06,22,08,46,13.70
2017,06,22,08,47,13.70
2017,06,22,08,48,13.70
2017,06,22,08,49,13.70
2017,06,22,08,50,13.70
2017,06,22,08,51,13.70
2017,06,22,08,52,13.80
2017,06,22,08,53,13.90
2017,06,22,08,54,13.90
2017,06,22,08,55,14.00
2017,06,22,08,56,14.00
2017,06,22,08,57,14.10
2017,06,22,08,58,14.10
2017,06,22,08,59,14.10
2017,06,22,09,00,14.10
2017,06,22,09,01,14.10
2017,06,22,09,02,14.10
2017,06,22,09,03,14.20
2017,06,22,09,04,14.20
2017,06,22,09,05,14.20
2017,06,22,09,06,14.00
2017,06,22,09,07,13.90
2017,06,22,09,08,13.80
2017,06,22,09,09,13.80
2017,06,22,09,10,13.70
2017,06,22,09,11,13.70
2017,06,22,09,12,13.80
2017,06,22,09,13,13.90
2017,06,22,09,14,13.90
2017,06,22,09,15,14.00
2017,06,22,09,16,14.00
2017,06,22,09,17,14.10
2017,06,22,09,18,14.00
2017,06,22,09,19,14.00
2017,06,22,09,20,14.00
2017,06,22,09,21,14.00
2017,06,22,09,22,14.00
2017,06,22,09,23,14.00
2017,06,22,09,24,14.10
2017,06,22,09,25,14.10
2017,06,22,09,26,14.10
2017,06,22,09,27,14.20
2017,06,22,09,28,14.20
2017,06,22,09,29,14.30
2017,06,22,09,30,14.30
2017,06,22,09,31,14.30
2017,06,22,09,32,14.30
2017,06,22,09,33,14.30
2017,06,22,09,34,14.20
2017,06,22,09,35,14.20
2017,06,22,09,36,14.20
2017,06,22,09,37,14.20
2017,06,22,09,38,14.10
2017,06,22,09,39,14.10
2017,06,22,09,40,14.10
2017,06,22,09,41,14.10
2017,06,22,09,42,14.10
2017,06,22,09,43,14.20
2017,06,22,09,44,14.20
2017,06,22,09,45,14.20
2017,06,22,09,46,14.20
2017,06,22,09,47,14.30
2017,06,22,09,48,14.50
2017,06,22,09,49,14.60
2017,06,22,09,50,14.70
2017,06,22,09,51,14.80
2017,06,22,09,52,14.90
2017,06,22,09,53,15.00
2017,06,22,09,54,15.00
2017,06,22,09,55,14.90
2017,06,22,09,56,14.80
2017,06,22,09,57,14.80
2017,06,22,09,58,14.80
2017,06,22,09,59,14.80
2017,06,22,10,00,14.80
2017,06,22,10,01,14.80
2017,06,22,10,02,14.70
2017,06,22,10,03,14.70
2017,06,22,10,04,14.70
2017,06,22,10,05,14.70
2017,06,22,10,06,14.70
2017,06,22,10,07,14.70
2017,06,22,10,08,14.60
2017,06,22,10,09,14.50
2017,06,22,10,10,14.30
2017,06,22,10,11,14.20
2017,06,22,10,12,14.10
2017,06,22,10,13,14.00
2017,06,22,10,14,13.90
2017,06,22,10,15,13.80
2017,06,22,10,16,13.70
2017,06,22,10,17,13.70
2017,06,22,10,18,13.60
2017,06,22,10,19,13.50
2017,06,22,10,20,13.40
2017,06,22,10,21,13.30
2017,06,22,10,22,13.30
2017,06,22,10,23,13.30
2017,06,22,10,24,13.30
2017,06,22,10,25,13.30
2017,06,22,10,26,13.30
2017,06,22,10,27,13.30
2017,06,22,10,28,13.30
2017,06,22,10,29,13.20
2017,06,22,10,30,13.10
2017,06,22,10,31,13.00
2017,06,22,10,32,12.90
2017,06,22,10,33,12.80
2017,06,22,10,34,12.80
2017,06,22,10,35,12.90
2017,06,22,10,36,12.90
2017,06,22,10,37,12.90
2017,06,22,10,38,12.80
2017,06,22,10,39,12.90
2017,06,22,10,40,12.90
2017,06,22,10,41,13.00
2017,06,22,10,42,13.10
2017,06,22,10,43,13.10
2017,06,22,10,44,13.20
2017,06,22,10,45,13.20
2017,06,22,10,46,13.20
2017,06,22,10,47,13.20
2017,06,22,10,48,13.20
2017,06,22,10,49,13.30
2017,06,22,10,50,13.30
2017,06,22,10,51,13.40
2017,06,22,10,52,13.40
2017,06,22,10,53,13.40
2017,06,22,10,54,13.30
2017,06,22,10,55,13.30
2017,06,22,10,56,13.40
2017,06,22,10,57,13.40
2017,06,22,10,58,13.40
2017,06,22,10,59,13.30
2017,06,22,11,00,13.20
2017,06,22,11,01,13.10
2017,06,22,11,02,13.10
2017,06,22,11,03,13.10
2017,06,22,11,04,13.10
2017,06,22,11,05,13.10
2017,06,22,11,06,13.20
2017,06,22,11,07,13.20
2017,06,22,11,08,13.20
2017,06,22,11,09,13.20
2017,06,22,11,10,13.30
2017,06,22,11,11,13.30
2017,06,22,11,12,13.30
2017,06,22,11,13,13.20
2017,06,22,11,14,13.20
2017,06,22,11,15,13.10
2017,06,22,11,16,13.10
2017,06,22,11,17,13.10
2017,06,22,11,18,13.10
2017,06,22,11,19,13.20
2017,06,22,11,20,13.30
2017,06,22,11,21,13.30
2017,06,22,11,22,13.30
2017,06,22,11,23,13.30
2017,06,22,11,24,13.40
2017,06,22,11,25,13.40
2017,06,22,11,26,13.30
2017,06,22,11,27,13.30
2017,06,22,11,28,13.30
2017,06,22,11,29,13.30
2017,06,22,11,30,13.30
2017,06,22,11,31,13.30
2017,06,22,11,32,13.30
2017,06,22,11,33,13.30
2017,06,22,11,34,13.30
2017,06,22,11,35,13.20
2017,06,22,11,36,13.10
2017,06,22,11,37,13.10
2017,06,22,11,38,13.10
2017,06,22,11,39,13.20
2017,06,22,11,40,13.30
2017,06,22,11,41,13.30
2017,06,22,11,42,13.40
2017,06,22,11,43,13.40
2017,06,22,11,44,13.40
2017,06,22,11,45,13.50
2017,06,22,11,46,13.50
2017,06,22,11,47,13.50
2017,06,22,11,48,13.60
2017,06,22,11,49,13.70
2017,06,22,11,50,13.70
2017,06,22,11,51,13.70
2017,06,22,11,52,13.70
2017,06,22,11,53,13.70
2017,06,22,11,54,13.80
2017,06,22,11,55,13.90
2017,06,22,11,56,14.00
2017,06,22,11,57,14.10
2017,06,22,11,58,14.20
2017,06,22,11,59,14.30
2017,06,22,12,00,14.40
2017,06,22,12,01,14.50
2017,06,22,12,02,14.50
2017,06,22,12,03,14.50
2017,06,22,12,04,14.50
2017,06,22,12,05,14.50
2017,06,22,12,06,14.40
2017,06,22,12,07,14.20
2017,06,22,12,08,14.20
2017,06,22,12,09,14.20
2017,06,22,12,10,14.20
2017,06,22,12,11,14.20
2017,06,22,12,12,14.20
2017,06,22,12,13,14.20
2017,06,22,12,14,14.30
2017,06,22,12,15,14.40
2017,06,22,12,16,14.30
2017,06,22,12,17,14.30
2017,06,22,12,18,14.30
2017,06,22,12,19,14.30
2017,06,22,12,20,14.30
2017,06,22,12,21,14.40
2017,06,22,12,22,14.50
2017,06,22,12,23,14.60
2017,06,22,12,24,14.70
2017,06,22,12,25,14.80
2017,06,22,12,26,15.00
2017,06,22,12,27,15.20
2017,06,22,12,28,15.30
2017,06,22,12,29,15.50
2017,06,22,12,30,15.70
2017,06,22,12,31,15.90
2017,06,22,12,32,16.20
2017,06,22,12,33,16.40
2017,06,22,12,34,16.50
2017,06,22,12,35,16.90
2017,06,22,12,36,17.30
2017,06,22,12,37,17.50
2017,06,22,12,38,17.70
2017,06,22,12,39,17.90
2017,06,22,12,40,18.10
2017,06,22,12,41,18.30
2017,06,22,12,42,18.40
2017,06,22,12,43,18.50
2017,06,22,12,44,18.70
2017,06,22,12,45,18.80
2017,06,22,12,46,18.90
2017,06,22,12,47,19.10
2017,06,22,12,48,19.10
2017,06,22,12,49,19.10
2017,06,22,12,50,19.20
2017,06,22,12,51,19.20
2017,06,22,12,52,19.30
2017,06,22,12,53,19.40
2017,06,22,12,54,19.40
2017,06,22,12,55,19.50
2017,06,22,12,56,19.60
2017,06,22,12,57,19.60
2017,06,22,12,58,19.70
2017,06,22,12,59,19.50
2017,06,22,13,00,19.30
2017,06,22,13,01,19.00
2017,06,22,13,02,18.90
2017,06,22,13,03,18.90
2017,06,22,13,04,18.90
2017,06,22,13,05,19.00
2017,06,22,13,06,19.10
2017,06,22,13,07,19.30
2017,06,22,13,08,19.30
2017,06,22,13,09,19.20
2017,06,22,13,10,19.20
2017,06,22,13,11,19.20
2017,06,22,13,12,19.10
2017,06,22,13,13,19.10
2017,06,22,13,14,19.10
2017,06,22,13,15,19.20
2017,06,22,13,16,19.30
2017,06,22,13,17,19.50
2017,06,22,13,18,19.40
2017,06,22,13,19,19.40
2017,06,22,13,20,19.20
2017,06,22,13,21,19.10
2017,06,22,13,22,19.00
2017,06,22,13,23,18.70
2017,06,22,13,24,18.50
2017,06,22,13,25,18.30
2017,06,22,13,26,18.20
2017,06,22,13,27,18.00
2017,06,22,13,28,17.80
2017,06,22,13,29,17.80
2017,06,22,13,30,17.70
2017,06,22,13,31,17.80
2017,06,22,13,32,17.90
2017,06,22,13,33,17.90
2017,06,22,13,34,17.90
2017,06,22,13,35,17.90
2017,06,22,13,36,17.90
2017,06,22,13,37,17.80
2017,06,22,13,38,17.60
2017,06,22,13,39,17.40
2017,06,22,13,40,17.30
2017,06,22,13,41,17.20
2017,06,22,13,42,17.20
2017,06,22,13,43,17.10
2017,06,22,13,44,17.10
2017,06,22,13,45,17.20
2017,06,22,13,46,17.30
2017,06,22,13,47,17.30
2017,06,22,13,48,17.30
2017,06,22,13,49,17.30
2017,06,22,13,50,17.30
2017,06,22,13,51,17.30
2017,06,22,13,52,17.30
2017,06,22,13,53,17.20
2017,06,22,13,54,17.00
2017,06,22,13,55,16.70
2017,06,22,13,56,16.60
2017,06,22,13,57,16.40
2017,06,22,13,58,16.40
2017,06,22,13,59,16.30
2017,06,22,14,00,16.10
2017,06,22,14,01,16.00
2017,06,22,14,02,15.90
2017,06,22,14,03,15.80
2017,06,22,14,04,15.70
2017,06,22,14,05,15.60
2017,06,22,14,06,15.60
2017,06,22,14,07,15.50
2017,06,22,14,08,15.50
2017,06,22,14,09,15.60
2017,06,22,14,10,15.60
2017,06,22,14,11,15.60
2017,06,22,14,12,15.40
2017,06,22,14,13,15.40
2017,06,22,14,14,15.50
2017,06,22,14,15,15.50
2017,06,22,14,16,15.50
2017,06,22,14,17,15.50
2017,06,22,14,18,15.50
2017,06,22,14,19,15.50
2017,06,22,14,20,15.40
2017,06,22,14,21,15.40
2017,06,22,14,22,15.30
2017,06,22,14,23,15.20
2017,06,22,14,24,15.20
2017,06,22,14,25,15.10
2017,06,22,14,26,15.10
2017,06,22,14,27,15.00
2017,06,22,14,28,14.90
2017,06,22,14,29,14.90
2017,06,22,14,30,14.90
2017,06,22,14,31,14.80
2017,06,22,14,32,14.80
2017,06,22,14,33,14.80
2017,06,22,14,34,14.80
2017,06,22,14,35,14.80
2017,06,22,14,36,14.80
2017,06,22,14,37,14.70
2017,06,22,14,38,14.60
2017,06,22,14,39,14.60
2017,06,22,14,40,14.70
2017,06,22,14,41,14.70
2017,06,22,14,42,14.70
2017,06,22,14,43,14.80
2017,06,22,14,44,14.80
2017,06,22,14,45,14.90
2017,06,22,14,46,15.00
2017,06,22,14,47,15.00
2017,06,22,14,48,14.90
2017,06,22,14,49,14.80
2017,06,22,14,50,14.80
2017,06,22,14,51,14.70
2017,06,22,14,52,14.70
2017,06,22,14,53,14.60
2017,06,22,14,54,14.60
2017,06,22,14,55,14.60
2017,06,22,14,56,14.70
2017,06,22,14,57,14.70
2017,06,22,14,58,14.60
2017,06,22,14,59,14.60
2017,06,22,15,00,14.60
2017,06,22,15,01,14.60
2017,06,22,15,02,14.60
2017,06,22,15,03,14.50
2017,06,22,15,04,14.50
2017,06,22,15,05,14.50
2017,06,22,15,06,14.50
2017,06,22,15,07,14.60
2017,06,22,15,08,14.70
2017,06,22,15,09,14.70
2017,06,22,15,10,14.70
2017,06,22,15,11,14.70
2017,06,22,15,12,14.70
2017,06,22,15,13,14.80
2017,06,22,15,14,14.90
2017,06,22,15,15,15.00
2017,06,22,15,16,14.90
2017,06,22,15,17,14.80
2017,06,22,15,18,14.80
2017,06,22,15,19,14.80
2017,06,22,15,20,14.90
2017,06,22,15,21,14.90
2017,06,22,15,22,15.00
2017,06,22,15,23,15.00
2017,06,22,15,24,15.00
2017,06,22,15,25,15.00
2017,06,22,15,26,15.00
2017,06,22,15,27,15.00
2017,06,22,15,28,15.10
2017,06,22,15,29,15.10
2017,06,22,15,30,15.00
2017,06,22,15,31,14.90
2017,06,22,15,32,14.80
2017,06,22,15,33,14.80
2017,06,22,15,34,14.70
2017,06,22,15,35,14.70
2017,06,22,15,36,14.80
2017,06,22,15,37,14.80
2017,06,22,15,38,14.80
2017,06,22,15,39,14.90
2017,06,22,15,40,14.90
2017,06,22,15,41,15.00
2017,06,22,15,42,14.90
2017,06,22,15,43,14.90
2017,06,22,15,44,15.10
2017,06,22,15,45,15.10
2017,06,22,15,46,15.10
2017,06,22,15,47,15.00
2017,06,22,15,48,15.00
2017,06,22,15,49,15.10
2017,06,22,15,50,15.10
2017,06,22,15,51,15.10
2017,06,22,15,52,15.10
2017,06,22,15,53,15.20
2017,06,22,15,54,15.30
2017,06,22,15,55,15.30
2017,06,22,15,56,15.40
2017,06,22,15,57,15.40
2017,06,22,15,58,15.40
2017,06,22,15,59,15.40
2017,06,22,16,00,15.50
2017,06,22,16,01,15.50
2017,06,22,16,02,15.50
2017,06,22,16,03,15.60
2017,06,22,16,04,15.50
2017,06,22,16,05,15.60
2017,06,22,16,06,15.60
2017,06,22,16,07,15.70
2017,06,22,16,08,15.60
2017,06,22,16,09,15.50
2017,06,22,16,10,15.60
2017,06,22,16,11,15.50
2017,06,22,16,12,15.50
2017,06,22,16,13,15.50
2017,06,22,16,14,15.50
2017,06,22,16,15,15.50
2017,06,22,16,16,15.60
2017,06,22,16,17,15.70
2017,06,22,16,18,15.80
2017,06,22,16,19,15.80
2017,06,22,16,20,15.80
2017,06,22,16,21,15.70
2017,06,22,16,22,15.70
2017,06,22,16,23,15.60
2017,06,22,16,24,15.70
2017,06,22,16,25,15.70
2017,06,22,16,26,15.70
2017,06,22,16,27,15.70
2017,06,22,16,28,15.80
2017,06,22,16,29,15.80
2017,06,22,16,30,15.80
2017,06,22,16,31,15.80
2017,06,22,16,32,15.80
2017,06,22,16,33,15.80
2017,06,22,16,34,15.90
2017,06,22,16,35,15.90
2017,06,22,16,36,15.90
2017,06,22,16,37,15.90
2017,06,22,16,38,15.80
2017,06,22,16,39,15.80
2017,06,22,16,40,15.80
2017,06,22,16,41,15.80
2017,06,22,16,42,15.80
2017,06,22,16,43,15.70
2017,06,22,16,44,15.70
2017,06,22,16,45,15.70
2017,06,22,16,46,15.80
2017,06,22,16,47,15.90
2017,06,22,16,48,16.00
2017,06,22,16,49,16.10
2017,06,22,16,50,16.20
2017,06,22,16,51,16.20
2017,06,22,16,52,16.30
2017,06,22,16,53,16.40
2017,06,22,16,54,16.40
2017,06,22,16,55,16.40
2017,06,22,16,56,16.40
2017,06,22,16,57,16.40
2017,06,22,16,58,16.40
2017,06,22,16,59,16.40
2017,06,22,17,00,16.40
2017,06,22,17,01,16.30
2017,06,22,17,02,16.30
2017,06,22,17,03,16.30
2017,06,22,17,04,16.30
2017,06,22,17,05,16.40
2017,06,22,17,06,16.40
2017,06,22,17,07,16.40
2017,06,22,17,08,16.30
2017,06,22,17,09,16.30
2017,06,22,17,10,16.40
2017,06,22,17,11,16.40
2017,06,22,17,12,16.30
2017,06,22,17,13,16.40
2017,06,22,17,14,16.40
2017,06,22,17,15,16.40
2017,06,22,17,16,16.40
2017,06,22,17,17,16.40
2017,06,22,17,18,16.30
2017,06,22,17,19,16.20
2017,06,22,17,20,16.20
2017,06,22,17,21,16.30
2017,06,22,17,22,16.40
2017,06,22,17,23,16.50